Namest Nad Oslav, Czech Republic

5:45 AM CEST on August 21, 2017 (GMT +0200)
Namest

Weather History for LKNA - February, 2013

Change the Weather History Date:

Friday, February 22, 2013

  Actual Average Record
Temperature  
Mean Temperature 20 °F -  
Max Temperature 24 °F - - ()
Min Temperature 17 °F - - ()
Degree Days  
Heating Degree Days 44    
Moisture  
Dew Point 19 °F    
Average Humidity 90    
Maximum Humidity 93    
Minimum Humidity 80    
Precipitation  
Precipitation 0.00 in - - ()
Sea Level Pressure  
Sea Level Pressure 29.82 in    
Wind  
Wind Speed 7 mph ()    
Max Wind Speed 13 mph    
Max Gust Speed -    
Visibility 2.5 miles    
Events Snow    
T = Trace of Precipitation, MM = Missing Value Source: Averaged Metar Reports

Daily Weather History Graph

Daily Weather History Graph

Search for Another Location

Airport or City:

Trip Planner

Search our weather history database for the weather conditions in past years. The results will help you decide how hot, cold, wet, or windy it might be!

Date:

Astronomy

Feb. 22, 2013 Rise Set
Actual Time 6:51 AM CET 5:27 PM CET
Civil Twilight 6:19 AM CET 5:59 PM CET
Nautical Twilight 5:42 AM CET 6:36 PM CET
Astronomical Twilight 5:05 AM CET 7:13 PM CET
Moon 2:10 PM CET (2/22) 4:37 AM CET (2/22)
Length of Visible Light 11h 40m
Length of Day
10h 35m
Waxing Gibbous, 88% of the Moon is Illuminated
Feb 22
Waxing Gibbous
Feb 25
Full
Mar 4
Last Quarter
Mar 11
New
Mar 19
First Quarter

Hourly Weather History & Observations

Time (CET) Temp. Windchill Dew Point Humidity Pressure Visibility Wind Dir Wind Speed Gust Speed Precip Events Conditions
12:00 AM 21.2 °F 10.9 °F 17.6 °F 86% 29.98 in 3.7 mi ENE 9.2 mph - N/A Snow Light Snow
1:00 AM 19.4 °F 6.6 °F 14.0 °F 80% 29.95 in 5.6 mi ENE 12.7 mph - N/A Snow Light Snow
2:00 AM 17.6 °F 6.4 °F 14.0 °F 86% 29.95 in 6.2 mi NNE 9.2 mph - N/A   Mostly Cloudy
3:00 AM 17.6 °F 7.3 °F 14.0 °F 86% 29.92 in 5.0 mi NNE 8.1 mph - N/A   Mostly Cloudy
4:00 AM 17.6 °F 9.3 °F 14.0 °F 86% 29.89 in 6.2 mi NNE 5.8 mph - N/A   Overcast
5:00 AM 17.6 °F 8.2 °F 14.0 °F 86% 29.89 in 6.2 mi NE 6.9 mph - N/A   Overcast
6:00 AM 17.6 °F 7.3 °F 14.0 °F 86% 29.86 in 5.0 mi NE 8.1 mph - N/A   Overcast
7:00 AM 19.4 °F 8.6 °F 14.0 °F 80% 29.86 in 3.7 mi NE 9.2 mph - N/A   Overcast
8:00 AM 19.4 °F 11.5 °F 15.8 °F 86% 29.86 in - NE 5.8 mph - N/A   Overcast
8:42 AM 19.4 °F 10.4 °F 15.8 °F 86% 29.86 in 1.2 mi NE 6.9 mph - N/A Snow Light Snow
9:00 AM 19.4 °F 10.4 °F 15.8 °F 86% 29.86 in 1.0 mi NE 6.9 mph - N/A Snow Light Snow
9:16 AM 19.4 °F 10.4 °F 17.6 °F 93% 29.83 in 0.6 mi NE 6.9 mph - N/A Snow Light Snow
9:27 AM 19.4 °F 10.4 °F 17.6 °F 93% 29.83 in 0.4 mi NE 6.9 mph - N/A Snow Light Snow
10:00 AM 19.4 °F 10.4 °F 17.6 °F 93% 29.83 in 0.8 mi NNE 6.9 mph - N/A Snow Light Snow
10:34 AM 21.2 °F 13.6 °F 19.4 °F 93% 29.83 in 0.4 mi NNE 5.8 mph - N/A Snow Light Snow
11:00 AM 21.2 °F 13.6 °F 19.4 °F 93% 29.80 in 0.4 mi NNE 5.8 mph - N/A Snow Light Snow
12:00 PM 23.0 °F 14.7 °F 21.2 °F 93% 29.80 in 0.5 mi NE 6.9 mph - N/A Snow Light Snow
1:00 PM 23.0 °F 13.9 °F 21.2 °F 93% 29.77 in 0.6 mi NE 8.1 mph - N/A Snow Light Snow
2:00 PM 24.8 °F 15.3 °F 23.0 °F 93% 29.77 in 0.6 mi ENE 9.2 mph - N/A Snow Light Snow
3:00 PM 24.8 °F 16.1 °F 23.0 °F 93% 29.74 in 1.2 mi ENE 8.1 mph - N/A Snow Light Snow
4:00 PM 24.8 °F 15.3 °F 23.0 °F 93% 29.74 in 1.2 mi ENE 9.2 mph - N/A Snow Light Snow
5:00 PM 24.8 °F 16.9 °F 23.0 °F 93% 29.74 in 0.9 mi NE 6.9 mph - N/A Snow Light Snow
6:00 PM 24.8 °F 16.9 °F 23.0 °F 93% 29.74 in 1.2 mi NE 6.9 mph - N/A Snow Light Snow
7:00 PM 24.8 °F 16.9 °F 21.2 °F 86% 29.74 in 1.9 mi NE 6.9 mph - N/A Snow Light Snow
8:00 PM 24.8 °F 16.1 °F 23.0 °F 93% 29.74 in 1.9 mi NE 8.1 mph - N/A Snow Light Snow
9:00 PM 24.8 °F 16.1 °F 23.0 °F 93% 29.74 in 1.9 mi NE 8.1 mph - N/A Snow Light Snow
10:00 PM 24.8 °F 16.9 °F 23.0 °F 93% 29.74 in 3.7 mi ENE 6.9 mph - N/A   Overcast
11:00 PM 24.8 °F 16.1 °F 23.0 °F 93% 29.74 in 5.0 mi ENE 8.1 mph - N/A Snow Light Snow